星链-35990(STARLINK-35990)

导读 | 豆包AI

STARLINK-35990是美国SpaceX公司星链(Starlink)星座的卫星,于2025年12月1日发射升空。它属于星链第二代低轨通信卫星,采用平板设计,配备相控阵天线与氪工质霍尔推进器,可支持激光星间链路。作为星链组网的一部分,其任务是为全球提供高速低延迟宽带互联网服务,覆盖包括偏远地区在内的全球范围,支持手机直连等业务,寿命末期会主动离轨再入大气层烧毁,减少太空垃圾。

基本信息
目录编号:
66792
目录名称:
STARLINK-35990
国际标识:
2025-278B
轨道中心:
EARTH
卫星名称:
星链-35990
卫星全名:
星链-35990(STARLINK-35990)
卫星状态:
在轨 (已飞行103 天)
发射日期:
2025-12-01 UTC
国别 :
美国 (US)
星等 :
--
轨道信息
数据来源 国际轨道数据
星历时间: 2026-03-13T18:17:23+0800
22小时前
查看轨道信息
半长轴: 6861.181km
偏心率: 0.0001452
轨道倾角: 43.003°
近地点辐角 261.618°
升交点赤经 93.014°
平近点角 98.451°
近地点: 482.047km
远地点: 484.041km
周期: 94.267分钟
每日圈数: 15.275819
详细信息
固有亮度:
5
最大亮度:
2.5
卫星平台:
Starlink V1.0
覆盖范围:
全球
运营商:
太空探索技术公司
运营商所在国:
美国
制造商(研发单位):
太空探索技术公司
制造商所在国:
美国
使用方式:
暂无
卫星简介
Starlink 计划是 SpaceX 推出的全球卫星互联网项目,通过发射低轨道卫星,为全球尤其是偏远地区提供高速、低延迟的互联网服务。自 2019 年起,Starlink 已部署数千颗卫星,旨在缩小全球数字鸿沟,推动互联网普及。该项目还为军事、航空等行业提供通信支持,带来广泛经济效益。
2D轨道图
3D轨道图
轨道高度分析图
轨道倾角分析图
轨道综合分析图
查看轨道综合分析图